Regional Weather Roundup
Issued by NWS Kansas City/Pleasant Hill, MO

Home | Current Version | Previous Version | Text Only | Print | Product List | Glossary On
Versions: 1 2 3 4 5 6 7 8 9 10 11 12 13 14 15 16 17 18 19 20 21 22 23 24 25 26 27 28 29 30 31 32 33 34 35 36 37 38 39 40 41 42 43 44 45 46 47 48 49 50
000
ASUS43 KEAX 291611
RWREAX

WEATHER ROUNDUP FOR EASTERN KANSAS AND NORTHWEST MISSOURI
NATIONAL WEATHER SERVICE KANSAS CITY/PLEASANT HILL MO
1100 AM CDT FRI AUG 29 2014

KSZ040-057-103>105-MOZ028-029-037-043-291700-
...KANSAS CITY METROPOLITAN AREA...

CITY           SKY/WX    TMP DP  RH WIND       PRES   REMARKS
K.C. INTL      CLOUDY    77  66  68 SW12      29.88S
K.C. DOWNTOWN  PTSUNNY   81  65  58 W9        29.86S
LEES SUMMIT    PTSUNNY   77  67  71 SW10      29.89S
OLATHE - IXD   CLOUDY    73  65  75 SW7       29.90S
OLATHE - OJC   LGT RAIN  71  66  84 S3        29.89R
LAWRENCE       CLOUDY    78  69  73 SW5       29.88S

$$

MOZ001>008-011>017-020>025-030>033-038>040-044>046-053-054-291700-
...NORTHERN AND CENTRAL MISSOURI...

CITY           SKY/WX    TMP DP  RH WIND       PRES   REMARKS
ST. JOSEPH     CLOUDY    75  68  78 SW8       29.87R
MOSBY          MOSUNNY   81  68  65 S8        29.87S
WHITEMAN AFB   MOSUNNY   82  70  66 SW17      29.89S
CLINTON        PTSUNNY   82  70  65 S8        29.90F
SEDALIA        MOSUNNY   84  67  56 S14       29.91F
WARSAW         NOT AVBL
MARSHALL       SUNNY     86  72  62 S12       29.89F HX  92
CHILLICOTHE      N/A     82  70  66 S7        29.88F
MOBERLY        SUNNY     84  68  58 S8        29.92S
KIRKSVILLE     SUNNY     83  70  64 S8        29.91S

$$

MOZ041-047>049-056>058-063>065-088>090-097-291700-
...EASTERN AND SOUTHERN MISSOURI...

CITY           SKY/WX    TMP DP  RH WIND       PRES   REMARKS
ST. LOUIS INTL MOSUNNY   87  72  60 SW8       29.97S HX  93
SPIRIT OF STL  MOSUNNY   85  70  60 S3        29.95S
COLUMBIA       SUNNY     86  67  52 S13       29.93S
JEFFERSON CITY MOSUNNY   85  66  53 S6        29.91F
MEXICO         SUNNY     86  70  58 S13       29.93F HX  90
HANNIBAL       SUNNY     86  66  51 S12       29.93F
ROLLA          MOSUNNY   87  62  43 S15       29.95S
LEBANON        SUNNY     88  64  45 S14G20    29.95F
OSAGE BEACH    SUNNY     84  66  54 SE9       29.92F
SPRINGFIELD    PTSUNNY   85  66  53 S14       29.94R
BRANSON        PTSUNNY   86  66  51 S7        29.96F
NEVADA         LGT RAIN  72  70  94 SW6       29.94R
JOPLIN         PTSUNNY   75  69  81 SW12      29.94R
WEST PLAINS    SUNNY     84  66  54 S13G18    29.99F

$$

IAZ060-094-KSZ022-034>040-054-083-096-NEZ052-066-093-291700-
...KANSAS...SOUTHEAST NEBRASKA AND IOWA...

CITY           SKY/WX    TMP DP  RH WIND       PRES   REMARKS
TOPEKA         CLOUDY    73  69  87 W3        29.88F
MANHATTAN      CLOUDY    74  67  78 S9        29.86F
EMPORIA        CLOUDY    75  67  76 S7        29.90S
CHANUTE        CLOUDY    72  68  87 SW5       29.91F
WICHITA        MOSUNNY   77  63  61 W7        29.90S
OMAHA          CLOUDY    73  68  84 S10       29.84R
LINCOLN        LGT RAIN  72  67  84 SW7       29.85R
FALLS CITY     LGT RAIN  72  67  84 SW10      29.85F
DES MOINES     MOSUNNY   81  71  71 S14       29.83S

$$



USA.gov is the U.S. government's official web portal to all federal, state and local government web resources and services.